Regional Weather Roundup
Issued by NWS State College, PA

Home | Current Version | Previous Version | Text Only | Print | Product List | Glossary Off
Versions: 1 2 3 4 5 6 7 8 9 10 11 12 13 14 15 16 17 18 19 20 21 22 23 24 25 26 27 28 29 30 31 32 33 34 35 36 37 38 39 40 41 42 43 44 45 46 47 48 49 50

000
ASUS41 KCTP 231803
RWRCTP

REGIONAL WEATHER ROUNDUP
NATIONAL WEATHER SERVICE STATE COLLEGE PA
100 PM EST FRI FEB 23 2018

Note: "fair" indicates few or no clouds below 12,000 feet with no
significant weather and/or obstructions to visibility.

* = STATION THAT DOES NOT REPORT PRECIPITATION /E.G. RAIN...SNOW...ETC/
    THUNDER OR FOG.

PAZ002>004-007>009-013>016-020>023-029>032-231900-
WESTERN PENNSYLVANIA

CITY           SKY/WX    TMP DP  RH WIND       PRES   REMARKS
ERIE           LGT RAIN  52  47  83 S20G25    30.08F
MEADVILLE      CLOUDY    46  46 100 VRB6      30.14F
FRANKLIN*      LGT RAIN  45  44  97 SE10      30.18F
NEW CASTLE     CLOUDY    52  52 100 VRB5      30.18F
BEAVER COUNTY  CLOUDY    50  48  93 S8        30.18F FOG
BUTLER*        CLOUDY    50  49  96 S7        30.20F
PITTSBURGH INT CLOUDY    54  53  97 CALM      30.19F
PITTSBURGH     PTSUNNY   55  53  93 S9        30.20F
INDIANA*       CLOUDY    46  46 100 S9        30.26F FOG
LATROBE        LGT RAIN  55  55 100 S6        30.23R
WASHINGTON CO* CLOUDY    63  59  87 SW15G23   30.23F
$$

PAZ004>006-010>012-017>019-024>028-033>037-041-042-045-046-049>053-231900-
CENTRAL PENNSYLVANIA

CITY           SKY/WX    TMP DP  RH WIND       PRES   REMARKS
BRADFORD       LGT RAIN  38  37  97 SE10      30.19F
DUBOIS         LGT RAIN  39  37  92 SE14G21   30.21F
CLEARFIELD     LGT RAIN  38  37  97 E5        30.28F FOG
JOHNSTOWN      RAIN      40  38  93 S13       30.26F FOG
ALTOONA        CLOUDY    39  37  92 S13       30.34F FOG
STATE COLLEGE  DRIZZLE   37  36  93 S8        30.34F FOG
WILLIAMSPORT   LGT RAIN  39  36  89 NE8G22    30.38F FOG
SELINSGROVE    CLOUDY    39  36  89 S10       30.43F
FT INDIANTOWN  DRIZZLE   38  38 100 SE5       30.45F FOG
CAPITAL CITY   CLOUDY    41  39  93 E8        30.44F FOG
HARRISBURG     CLOUDY    40  38  93 SE8       30.45F FOG
YORK           CLOUDY    41  40  96 S7        30.44F
$$

PAZ038>040-043-044-047-048-054-055-060>062-067>071-231900-
EASTERN PENNSYLVANIA

CITY           SKY/WX    TMP DP  RH WIND       PRES   REMARKS
SCRANTON       LGT RAIN  38  34  85 MISG      30.40F
MOUNT POCONO   NOT AVBL
ALLENTOWN      LGT RAIN  38  34  85 E7        30.49F FOG
QUAKERTOWN*    CLOUDY    37  37 100 E3        30.48F FOG
READING        CLOUDY    39  39 100 SE8       30.46F FOG
LANCASTER      CLOUDY    40  38  93 SE7       30.46F FOG
COATESVILLE    MIX PCPN  39  37  93 SE6       30.47F VSB 1/2
POTTSTOWN      FOG       38  38 100 VRB3      30.49F VSB 3/4
BLUE BELL      CLOUDY    37  37 100 CALM      30.51S
DOYLESTOWN     CLOUDY    38  37  97 VRB3      30.49F
WILLOW GROVE   NOT AVBL
NORTH PHILA    CLOUDY    42  39  89 E7        30.51F FOG
PHILADELPHIA   DRIZZLE   41  40  96 NE6       30.50F FOG
$$




USA.gov is the U.S. government's official web portal to all federal, state and local government web resources and services.